{"data":{"norad_id":68809,"epoch":"2026-09-18T20:22:57.606240Z","epoch_age_seconds":182515,"freshness":"STALE","line1":"1 68809U 26089H   26261.84927785  .00010814  00000+0  33677-3 0  9995","line2":"2 68809  97.2852 107.5961 0002275  93.6457 266.5046 15.33446106 23002","mean_motion":15.33446106,"eccentricity":0.0002275,"inclination_deg":97.2852,"raan_deg":107.5961,"arg_perigee_deg":93.6457,"mean_anomaly_deg":266.5046,"bstar":0.00033677,"rev_number":2300,"period_min":93.906136926862,"perigee_km":463.98294731118,"apogee_km":467.09682029331,"semimajor_km":6843.6768838022,"source":"CELESTRAK","updated_at":"2026-09-20T09:00:44.007236Z"}}